Location: Noordwijk
(52.2400°N, 4.4500°E)
Time: 03:31:14
(UTC+00:00)

PCSat - Pass Details

Date: 09 December 2022
Orbit: 785 x 793 km, 67.0° (Epoch: 28 January)

Event Time Altitude Azimuth Distance (km) Brightness Sun altitude
Rises 17:00:51 0° 182° (S) 3,268 13.1 -13.0°
Reaches altitude 10° 17:03:30 10° 171° (S) 2,345 12.2 -13.3°
Maximum altitude 17:08:05 29° 112° (ESE) 1,409 10.5 -14.0°
Enters shadow 17:10:24 21° 73° (ENE) 1,703 10.6 -14.3°
